Weather History for Ogallala, NE

Change the Weather History Date:

Tuesday, November 6, 2012

  Actual Average Record
Temperature  
Mean Temperature 46 °F -  
Max Temperature 63 °F 53 °F 81 °F (2010)
Min Temperature 29 °F 24 °F 5 °F (1959)
Degree Days  
Heating Degree Days 19    
Moisture  
Dew Point 33 °F    
Average Humidity 58    
Maximum Humidity 85    
Minimum Humidity 29    
Precipitation  
Precipitation 0.00 in - - ()
Sea Level Pressure  
Sea Level Pressure 30.16 in    
Wind  
Wind Speed 11 mph (NW)    
Max Wind Speed 20 mph    
Max Gust Speed 25 mph    
Visibility 10 miles    
Events      
Averages and records for this station are not official NWS values.
T = Trace of Precipitation, MM = Missing Value Source: NWS Daily Summary

Daily Weather History Graph

Daily Weather History Graph

Search for Another Location

Airport:

Trip Planner

Search our weather history database for the weather conditions in past years. The results will help you decide how hot, cold, wet, or windy it might be!

Date:

Astronomy

Nov. 06, 2012 Rise Set
Actual Time 6:24 AM MST 4:36 PM MST
Civil Twilight 5:55 AM MST 5:05 PM MST
Nautical Twilight 5:22 AM MST 5:37 PM MST
Astronomical Twilight 4:50 AM MST 6:10 PM MST
Moon 11:18 PM MST (11/6) 12:17 PM MST (11/6)
Length of Visible Light 11h 09m
Length of Day
10h 11m
Waning Gibbous, 52% of the Moon is Illuminated
Nov 6
Waning Gibbous
Nov 6
Last Quarter
Nov 13
New
Nov 20
First Quarter
Nov 28
Full

Hourly Weather History & Observations

Time (MST) Temp. Windchill Dew Point Humidity Pressure Visibility Wind Dir Wind Speed Gust Speed Precip Events Conditions
12:15 AM 44.4 °F 39.0 °F 34.5 °F 68% 30.04 in 10.0 mi WSW 10.4 mph - N/A   Clear
12:35 AM 42.3 °F 36.8 °F 34.0 °F 72% 30.05 in 10.0 mi West 9.2 mph - N/A   Clear
12:55 AM 44.6 °F 38.1 °F 34.5 °F 68% 30.07 in 10.0 mi NNW 13.8 mph - N/A   Clear
1:15 AM 48.7 °F - 34.9 °F 59% 30.07 in 10.0 mi NNW 15.0 mph - N/A   Clear
1:35 AM 47.1 °F - 34.9 °F 62% 30.08 in 10.0 mi NNW 10.4 mph - N/A   Clear
1:55 AM 48.9 °F - 35.8 °F 61% 30.08 in 10.0 mi NNW 9.2 mph - N/A   Clear
2:15 AM 49.5 °F - 36.1 °F 60% 30.11 in 10.0 mi WNW 8.1 mph - N/A   Clear
2:35 AM 45.9 °F 41.7 °F 35.4 °F 67% 30.11 in 10.0 mi NNW 8.1 mph - N/A   Clear
2:55 AM 44.2 °F 39.2 °F 35.1 °F 70% 30.11 in 10.0 mi NNW 9.2 mph - N/A   Clear
3:15 AM 44.2 °F 38.0 °F 35.2 °F 71% 30.12 in 10.0 mi NW 12.7 mph - N/A   Clear
3:35 AM 45.5 °F 40.3 °F 36.1 °F 70% 30.12 in 10.0 mi NW 10.4 mph - N/A   Clear
3:55 AM 45.0 °F 39.7 °F 36.0 °F 71% 30.13 in 10.0 mi NW 10.4 mph - N/A   Clear
4:15 AM 47.3 °F - 37.4 °F 68% 30.14 in 10.0 mi NNW 13.8 mph - N/A   Mostly Cloudy
4:35 AM 49.5 °F - 37.4 °F 63% 30.14 in 10.0 mi NNW 15.0 mph - N/A   Mostly Cloudy
4:55 AM 46.9 °F - 36.7 °F 68% 30.15 in 10.0 mi NNW 12.7 mph - N/A   Scattered Clouds
5:15 AM 46.8 °F - 36.7 °F 68% 30.15 in 10.0 mi NNW 12.7 mph - N/A   Clear
5:35 AM 46.6 °F - 36.9 °F 69% 30.15 in 10.0 mi NNW 16.1 mph - N/A   Scattered Clouds
5:55 AM 45.3 °F 39.0 °F 36.7 °F 72% 30.16 in 10.0 mi NNW 13.8 mph - N/A   Clear
6:15 AM 45.9 °F 39.7 °F 36.9 °F 71% 30.17 in 10.0 mi NNW 13.8 mph - N/A   Clear
6:35 AM 44.8 °F 39.4 °F 36.7 °F 73% 30.18 in 10.0 mi NNW 10.4 mph - N/A   Clear
6:55 AM 43.5 °F 37.1 °F 36.5 °F 76% 30.19 in 10.0 mi NW 12.7 mph - N/A   Clear
7:15 AM 44.4 °F 39.5 °F 36.9 °F 75% 30.21 in 10.0 mi NW 9.2 mph - N/A   Clear
7:35 AM 46.8 °F - 37.8 °F 71% 30.22 in 10.0 mi NW 12.7 mph - N/A   Clear
7:55 AM 48.4 °F - 37.8 °F 67% 30.22 in 10.0 mi NNW 15.0 mph - N/A   Clear
8:15 AM 49.5 °F - 37.4 °F 63% 30.23 in 10.0 mi NNW 16.1 mph - N/A   Clear
8:35 AM 50.2 °F - 37.4 °F 62% 30.23 in 10.0 mi NNW 18.4 mph - N/A   Clear
8:55 AM 51.8 °F - 36.3 °F 56% 30.23 in 10.0 mi NNW 18.4 mph - N/A   Clear
9:15 AM 52.9 °F - 35.1 °F 51% 30.23 in 10.0 mi North 17.3 mph - N/A   Clear
9:35 AM 53.6 °F - 34.7 °F 49% 30.23 in 10.0 mi North 16.1 mph - N/A   Clear
9:55 AM 54.0 °F - 34.3 °F 47% 30.23 in 10.0 mi North 15.0 mph 18.4 mph N/A   Clear
10:15 AM 56.3 °F - 32.2 °F 40% 30.23 in 10.0 mi North 15.0 mph - N/A   Clear
10:35 AM 57.6 °F - 31.8 °F 38% 30.22 in 10.0 mi NNW 16.1 mph - N/A   Clear
10:55 AM 58.3 °F - 32.2 °F 37% 30.22 in 10.0 mi NNW 13.8 mph 19.6 mph N/A   Clear
11:15 AM 59.4 °F - 33.1 °F 37% 30.20 in 10.0 mi NNW 13.8 mph - N/A   Clear
11:35 AM 60.6 °F - 35.8 °F 40% 30.19 in 10.0 mi NW 16.1 mph 21.9 mph N/A   Clear
11:55 AM 61.2 °F - 34.9 °F 37% 30.17 in 10.0 mi NW 12.7 mph 20.7 mph N/A   Clear
12:15 PM 61.7 °F - 32.7 °F 34% 30.17 in 10.0 mi NW 11.5 mph 25.3 mph N/A   Clear
12:35 PM 63.0 °F - 31.6 °F 31% 30.16 in 10.0 mi NW 18.4 mph - N/A   Clear
12:55 PM 63.0 °F - 30.4 °F 29% 30.16 in 10.0 mi NW 18.4 mph 25.3 mph N/A   Clear
1:15 PM 62.8 °F - 29.8 °F 29% 30.15 in 10.0 mi NNW 19.6 mph 25.3 mph N/A   Clear
1:35 PM 62.6 °F - 29.7 °F 29% 30.15 in 10.0 mi NNW 17.3 mph - N/A   Clear
1:55 PM 62.8 °F - 29.7 °F 29% 30.15 in 10.0 mi NNW 19.6 mph 25.3 mph N/A   Clear
2:15 PM 63.5 °F - 30.2 °F 29% 30.15 in 10.0 mi NNW 18.4 mph 25.3 mph N/A   Clear
2:35 PM 62.8 °F - 30.6 °F 30% 30.15 in 10.0 mi NNW 12.7 mph - N/A   Clear
2:55 PM 62.6 °F - 30.9 °F 30% 30.15 in 10.0 mi NNW 13.8 mph - N/A   Clear
3:15 PM 62.6 °F - 30.7 °F 30% 30.14 in 10.0 mi NNW 10.4 mph 17.3 mph N/A   Clear
3:35 PM 61.7 °F - 30.9 °F 31% 30.14 in 10.0 mi North 9.2 mph - N/A   Clear
3:55 PM 61.0 °F - 31.1 °F 32% 30.14 in 10.0 mi North 8.1 mph - N/A   Clear
4:15 PM 58.5 °F - 31.1 °F 35% 30.14 in 10.0 mi North 3.5 mph - N/A   Clear
4:35 PM 55.6 °F - 31.8 °F 41% 30.15 in 10.0 mi North 4.6 mph - N/A   Clear
4:55 PM 51.1 °F - 31.3 °F 47% 30.15 in 10.0 mi NNW 4.6 mph - N/A   Clear
5:15 PM 44.6 °F 41.4 °F 29.1 °F 55% 30.16 in 10.0 mi North 5.8 mph - N/A   Clear
5:35 PM 47.3 °F - 31.6 °F 55% 30.16 in 10.0 mi Calm Calm - N/A   Clear
5:55 PM 46.6 °F - 32.0 °F 57% 30.16 in 10.0 mi Calm Calm - N/A   Clear
6:15 PM 43.9 °F - 31.1 °F 61% 30.17 in 10.0 mi Calm Calm - N/A   Clear
6:35 PM 40.3 °F - 30.0 °F 67% 30.17 in 10.0 mi Calm Calm - N/A   Clear
6:55 PM 43.7 °F - 31.5 °F 62% 30.17 in 10.0 mi Calm Calm - N/A   Clear
7:15 PM 39.6 °F - 29.3 °F 67% 30.17 in 10.0 mi Calm Calm - N/A   Scattered Clouds
7:35 PM 41.5 °F - 30.9 °F 66% 30.16 in 10.0 mi Calm Calm - N/A   Overcast
7:55 PM 40.1 °F 36.9 °F 30.9 °F 70% 30.18 in 10.0 mi WSW 4.6 mph - N/A   Overcast
8:15 PM 40.3 °F - 31.5 °F 71% 30.17 in 10.0 mi Calm Calm - N/A   Mostly Cloudy
8:35 PM 41.0 °F 39.0 °F 31.6 °F 69% 30.17 in 10.0 mi West 3.5 mph - N/A   Scattered Clouds
8:55 PM 37.4 °F 33.8 °F 30.0 °F 75% 30.18 in 10.0 mi WSW 4.6 mph - N/A   Clear
9:15 PM 36.1 °F 33.5 °F 29.7 °F 77% 30.18 in 10.0 mi West 3.5 mph - N/A   Clear
9:35 PM 36.9 °F 34.3 °F 29.3 °F 74% 30.18 in 10.0 mi West 3.5 mph - N/A   Clear
9:55 PM 33.8 °F - 28.2 °F 80% 30.18 in 10.0 mi Calm Calm - N/A   Clear
10:15 PM 33.8 °F - 27.9 °F 79% 30.17 in 10.0 mi Calm Calm - N/A   Clear
10:35 PM 34.5 °F - 28.4 °F 78% 30.17 in 10.0 mi Calm Calm - N/A   Clear
10:55 PM 32.5 °F - 27.1 °F 80% 30.17 in 10.0 mi Calm Calm - N/A   Clear
11:15 PM 32.0 °F - 26.1 °F 79% 30.16 in 10.0 mi Calm Calm - N/A   Clear
11:35 PM 29.3 °F 25.6 °F 24.8 °F 83% 30.16 in 10.0 mi WNW 3.5 mph - N/A   Clear
11:55 PM 29.1 °F 25.4 °F 25.2 °F 85% 30.17 in 10.0 mi West 3.5 mph - N/A   Clear